sat.trackr.live / text

‹ back to catalog

STARLINK-2464

NORAD 48123 · 2021-027AH

PAYLOAD ACTIVE UNKNOWN

§ Identity

Operator
Country
US
Launch date
2021-04-07
Launch site
AFETR
Launch vehicle
Mass (kg)
RCS (m²)

Purposes: comms

External: N2YO · Heavens-Above · Gunter

§ Orbital elements

Epoch: 2026-05-25T01:26:44.924352Z

Period
94.01 min
Inclination
53.1580°
Eccentricity
0.0001256
Mean motion
15.31705724 rev/d
Perigee alt
469.9 km
Apogee alt
471.6 km
Semi-major
6,848.9 km
B*
3.2336e-5
RAAN
157.4163°
Arg perigee
82.4350°
Mean anomaly
277.6794°
Rev number
28,438

§ Raw data

STARLINK-24641 48123U 21027AH  26145.06024218  .00000639  00000+0  32336-4 0  99992 48123  53.1580 157.4163 0001256  82.4350 277.6794 15.31705724284387

JSON: /api/v1/satellites/48123 · /tle

For live sub-satellite position, see the globe view (requires WebGL).

§ Visibility from observer

Set your observer location to see the next 7 days of passes ≥ 10°. The values pass through the URL so the page stays shareable.

No JS? Fill the form by hand. The geolocation button needs JavaScript.